| time (UTC) | temp F | wind direction | speed MPH | gust MPH | rain 1hr in | rain 24hr in | rain mn in | humidity % | barometer mb |
| 20260504044541 | 57 | 300 | 0.0 | 8.0 | 0.00 | 0.00 | 0.00 | 76 | 1012.6 |
| 20260504043030 | 58 | 272 | 0.0 | 5.0 | 0.00 | 0.00 | 0.00 | 76 | 1012.4 |
| 20260504041530 | 58 | 299 | 0.0 | 5.0 | 0.00 | 0.00 | 0.00 | 75 | 1012.4 |
| 20260504040036 | 59 | 275 | 1.0 | 5.0 | 0.00 | 0.00 | 0.00 | 74 | 1012.2 |
| 20260504034530 | 59 | 358 | 0.0 | 5.0 | 0.00 | 0.00 | 0.00 | 74 | 1012.1 |
| 20260504033030 | 59 | 337 | 0.0 | 6.0 | 0.00 | 0.00 | 0.00 | 72 | 1011.9 |
| 20260504031531 | 60 | 307 | 1.0 | 7.0 | 0.00 | 0.00 | 0.00 | 69 | 1011.7 |
| 20260504030029 | 62 | 334 | 1.0 | 9.0 | 0.00 | 0.00 | 0.00 | 66 | 1011.7 |
| 20260504024530 | 63 | 277 | 1.0 | 13.0 | 0.00 | 0.00 | 0.00 | 64 | 1011.4 |
| 20260504023103 | 64 | 226 | 3.0 | 11.0 | 0.00 | 0.00 | 0.00 | 61 | 1011.3 |
| 20260504021559 | 65 | 340 | 3.0 | 15.0 | 0.00 | 0.00 | 0.00 | 59 | 1011.2 |
| 20260504020114 | 66 | 323 | 3.0 | 10.0 | 0.00 | 0.00 | 0.00 | 57 | 1010.9 |
| 20260504014614 | 66 | 330 | 2.0 | 11.0 | 0.00 | 0.00 | 0.00 | 57 | 1010.9 |
| 20260504013114 | 68 | 338 | 2.0 | 8.0 | 0.00 | 0.00 | 0.00 | 55 | 1010.8 |
| 20260504011614 | 67 | 295 | 3.0 | 12.0 | 0.00 | 0.00 | 0.00 | 56 | 1010.7 |
| 20260504010114 | 68 | 300 | 4.0 | 12.0 | 0.00 | 0.00 | 0.00 | 54 | 1010.8 |
| 20260504004614 | 68 | 313 | 2.0 | 10.0 | 0.00 | 0.00 | 0.00 | 54 | 1010.7 |
| 20260504003116 | 68 | 4 | 0.0 | 10.0 | 0.00 | 0.00 | 0.00 | 55 | 1010.7 |
| 20260504001614 | 68 | 307 | 1.0 | 10.0 | 0.00 | 0.00 | 0.00 | 53 | 1010.6 |
| 20260504000016 | 69 | 338 | 1.0 | 8.0 | 0.00 | 0.00 | 0.00 | 53 | 1010.7 |
| 20260503234531 | 69 | 288 | 1.0 | 8.0 | 0.00 | 0.00 | 0.00 | 53 | 1010.8 |
| 20260503233035 | 69 | 307 | 1.0 | 7.0 | 0.00 | 0.00 | 0.00 | 53 | 1010.9 |
| 20260503231529 | 68 | 245 | 1.0 | 6.0 | 0.00 | 0.00 | 0.00 | 54 | 1011.0 |
| 20260503230029 | 68 | 335 | 0.0 | 6.0 | 0.00 | 0.00 | 0.00 | 55 | 1010.8 |
| 20260503224543 | 68 | 328 | 1.0 | 7.0 | 0.00 | 0.00 | 0.00 | 57 | 1010.7 |
| 20260503223043 | 68 | 318 | 1.0 | 5.0 | 0.00 | 0.00 | 0.00 | 57 | 1010.9 |
| 20260503221546 | 68 | 298 | 1.0 | 6.0 | 0.00 | 0.00 | 0.00 | 57 | 1011.0 |
| 20260503220043 | 68 | 333 | 0.0 | 8.0 | 0.00 | 0.00 | 0.00 | 58 | 1011.0 |
| 20260503214603 | 67 | 245 | 0.0 | 7.0 | 0.00 | 0.00 | 0.00 | 58 | 1011.3 |
| 20260503213059 | 67 | 304 | 0.0 | 9.0 | 0.00 | 0.00 | 0.00 | 58 | 1011.2 |
| 20260503211600 | 68 | 285 | 3.0 | 10.0 | 0.00 | 0.00 | 0.00 | 57 | 1011.2 |
| 20260503210100 | 68 | 339 | 1.0 | 11.0 | 0.00 | 0.00 | 0.00 | 57 | 1011.3 |
| 20260503204603 | 69 | 240 | 1.0 | 8.0 | 0.00 | 0.00 | 0.00 | 55 | 1011.3 |
| 20260503203103 | 69 | 308 | 0.0 | 10.0 | 0.00 | 0.00 | 0.00 | 56 | 1011.4 |
| 20260503201558 | 69 | 258 | 3.0 | 15.0 | 0.00 | 0.00 | 0.00 | 54 | 1011.6 |
| 20260503200059 | 67 | 289 | 0.0 | 11.0 | 0.00 | 0.00 | 0.00 | 58 | 1011.5 |
| 20260503194559 | 66 | 293 | 1.0 | 9.0 | 0.00 | 0.00 | 0.00 | 59 | 1011.6 |
| 20260503193111 | 65 | 328 | 1.0 | 8.0 | 0.00 | 0.00 | 0.00 | 60 | 1011.7 |
| 20260503191517 | 64 | 234 | 2.0 | 8.0 | 0.00 | 0.00 | 0.00 | 62 | 1011.9 |
| 20260503190110 | 63 | 266 | 2.0 | 7.0 | 0.00 | 0.00 | 0.00 | 64 | 1012.0 |
| 20260503184507 | 63 | 231 | 0.0 | 8.0 | 0.00 | 0.00 | 0.00 | 65 | 1012.1 |
| 20260503183008 | 63 | 258 | 4.0 | 10.0 | 0.00 | 0.00 | 0.00 | 65 | 1012.2 |
| 20260503181504 | 63 | 349 | 2.0 | 8.0 | 0.00 | 0.00 | 0.00 | 65 | 1012.1 |
| 20260503180007 | 63 | 306 | 3.0 | 9.0 | 0.00 | 0.00 | 0.00 | 66 | 1012.0 |
| 20260503174502 | 62 | 296 | 1.0 | 9.0 | 0.00 | 0.00 | 0.00 | 66 | 1012.2 |
| 20260503173002 | 62 | 285 | 1.0 | 8.0 | 0.00 | 0.00 | 0.00 | 68 | 1012.0 |
| 20260503171501 | 60 | 193 | 1.0 | 10.0 | 0.00 | 0.00 | 0.00 | 71 | 1011.9 |
| 20260503100110 | 53 | 187 | 0.0 | 0.0 | 0.00 | 0.00 | 0.00 | 89 | 1009.3 |
| 20260503090106 | 53 | 191 | 0.0 | 0.0 | 0.00 | 0.00 | 0.00 | 89 | 1009.5 |
| 20260503081615 | 53 | 190 | 0.0 | 0.0 | 0.00 | 0.00 | 0.00 | 87 | 1009.9 |
| 20260503080104 | 53 | 188 | 0.0 | 2.0 | 0.00 | 0.00 | 0.00 | 87 | 1010.0 |
| 20260503071517 | 54 | 191 | 0.0 | 0.0 | 0.00 | 0.00 | 0.00 | 87 | 1010.3 |